Regional Weather Roundup
Issued by NWS

Home | Current Version | Previous Version | Text Only | Print | Product List | Glossary On
Versions: 1 2 3 4 5 6 7 8 9 10 11 12 13 14 15 16 17 18 19 20 21 22 23 24 25 26 27 28 29 30 31 32 33 34 35 36 37 38 39 40 41 42 43 44 45 46 47 48 49 50
000
ASUS44 KBMX 291010
RWRAL

ALABAMA REGIONAL WEATHER ROUNDUP
NATIONAL WEATHER SERVICE BIRMINGHAM AL
500 AM CDT FRI AUG 29 2014

NOTE: "FAIR" INDICATES FEW OR NO CLOUDS BELOW 12,000 FEET
WITH NO SIGNIFICANT WEATHER AND/OR OBSTRUCTIONS TO VISIBILITY.

THE REMARK "TC" DENOTES TEMPERATURE IN DEGREES CELSIUS.

ALZ001>011-014-016>018-020-291100-
NORTH ALABAMA

CITY           SKY/WX    TMP DP  RH WIND       PRES   REMARKS
MUSCLE SHOALS  CLEAR     66  62  87 CALM      30.01S
HUNTSVILLE     CLEAR     70  66  87 E5        30.02R
DECATUR        CLEAR     69  65  86 E6        30.02R
HALEYVILLE     FAIR      69  61  76 CALM      30.05S
GADSDEN        CLEAR     61  57  88 CALM      30.04R
$$

ALZ012-013-022-023-030>036-040>044-291100-
WEST CENTRAL ALABAMA

CITY           SKY/WX    TMP DP  RH WIND       PRES   REMARKS
TUSCALOOSA     PTCLDY    68  65  90 CALM      30.00R
$$

ALZ015-024>027-033>036-040>044-291100-
CENTRAL ALABAMA

CITY           SKY/WX    TMP DP  RH WIND       PRES   REMARKS
BIRMINGHAM     PTCLDY    67  61  81 CALM      30.04R
MONTGOMERY     CLEAR     69  65  86 CALM      30.01S
SHELBY CO ARPT PTCLDY    68  62  81 CALM      30.03R
MAXWELL AFB    PTCLDY    69  69 100 N2        30.01S FOG
GREENVILLE     FAIR      69  65  86 CALM      30.01S
$$

ALZ019-021-028-029-037-038-045>048-291100-
EAST CENTRAL ALABAMA

CITY           SKY/WX    TMP DP  RH WIND       PRES   REMARKS
ANNISTON       CLEAR     66  62  87 E3        30.04R
ALEXANDER CITY CLEAR     68  63  84 CALM      30.05R HAZE
AUBURN         CLEAR     66  57  72 CALM      30.07S
$$

ALZ051>064-291100-
SOUTHWEST ALABAMA

CITY           SKY/WX    TMP DP  RH WIND       PRES   REMARKS
MOBILE         CLEAR     72  72 100 NE3       29.97F
BROOKLEY FIELD CLEAR     76  73  91 NW5       29.97F
EVERGREEN      PTCLDY    69  66  90 CALM      30.00S
$$

ALZ049-050-065>069-291100-
SOUTHEAST ALABAMA

CITY           SKY/WX    TMP DP  RH WIND       PRES   REMARKS
DOTHAN         PTCLDY    70  66  87 NE3       30.04S
OZARK          CLEAR     70  66  88 NE6       30.00S
TROY           PTCLDY    65  63  93 CALM      30.02S
EUFAULA        FAIR      64  62  93 CALM      30.01R
$$


USA.gov is the U.S. government's official web portal to all federal, state and local government web resources and services.